Showing default

HAWK-9B, 59450

Orbit data source: Space-Track

HAWK-9B, 59450 is a payload satellite owned by HawkEye 360 (US) in LEO that was launched on Sun, 07 Apr 2024 UTC via an FALCON 9 launch vehicle from the Air Force Eastern Test Range (AFETR). Payload-class satellites include a variety of spacecraft equipped with specific instruments for various scientific and technological missions. These include communications satellites like Starlink; space stations such as the ISS; scientific satellites like the Hubble; Earth observation satellites from companies like Planet Labs, Umbra, and HawkEye 360; GPS; miniature CubeSats for education and research; and military/defense satellites.

Loading next visibility...
Identifier
59450, 2024-066J
Orbit
LEO
Last TLE update
20 hours ago
Origin
Manufacturer
UTIAS-SFL
Mission
Operational spacecraft
Bus & Motor
HAWK2G, Unknown motor
Mass
31 kg wet, 30 kg dry
Launch date (UTC)
2024-04-07 (1 year ago)
Launch vehicle
FALCON 9
Launch site
Air Force Eastern Test Range (AFETR)
Object type
Payload
Rocket body
Debris
Shape & HBR
Unknown
Radar Cross Section
Medium (>0.1 m² and <1 m²)

Expand to show TLE details & history

TLE from 20 hours ago
0 HAWK-9B
1 59450U 24066J   25183.40202172  .00001651  00000-0  16045-3 0  9990
2 59450  45.6233 283.1842 0004944 305.9718  54.0704 14.97106485 67378
Epoch: 2025-07-02T09:38Z
TLE epoch observation values (Epoch: 2025-07-02T09:38:54.676Z)
Latitude
-0.00001°
Longitude
-142.22727°
Altitude
573.893 km
Speed
7.577 km/s
True Right ascension
18h 52m 44s
True Declination
0° 00' 00"
Sunlit
Object was in full shadow at epoch
Visualization orbit readout
Latitude
-45.19827°
Longitude
111.88898°
Altitude
588.059 km
Speed
7.568 km/s
Apparent Right ascension
08h 48m 46s
Apparent Declination
-52° 26' 15"
Sunlit
Object is in daylight
Visualization observer readout
Local Sidereal Time
17:47:30
Azimuth
232.474° WSW
Elevation
-56.871°
Doppler factor
1
Orbital elements
Apogee altitude
580.765 km
Perigee altitude
573.888 km
Semi-major axis
6,955.464 km
Eccentricity
0.00049
Inclination
45.6233°
RAAN
283.1842°
Arg. of periapsis
305.9718°
True anomaly
Unknown
Mean anomaly
54.0704°
Eccentric anomaly
Unknown
Mean motion
3.74157 °/min
Orbital period
96.22 mins
BSTAR
0.00016045
Loading maneuver chart data...
Loading SW <> Apogee altitude chart data...
Loading historical data...
Loading historical data...
Loading historical data...
Loading historical data...
Loading historical data...
Loading historical data...
Loading historical data...

HAWK-9B Visibility forecast

Observer location: undefined°, undefined°

Span
Click to sort rows by Start time (UTC) header in descending order
Start Az.
Max El. time (UTC)
Max El. Az.
Max El.
End time (UTC)
End Az.
7 mins2025-07-03 09:52:53.959Z226.658° WSW2025-07-03 09:55:53.959Z154.645° SSE41.489°2025-07-03 09:59:53.959Z70.016° E
7 mins2025-07-03 11:33:53.959Z279.009° WNW2025-07-03 11:36:53.959Z346.082° N35.698°2025-07-03 11:40:53.959Z61.073° ENE
6 mins2025-07-03 13:15:53.959Z308.219° NW2025-07-03 13:17:53.959Z351.314° N32.087°2025-07-03 13:21:53.959Z74.927° E
6 mins2025-07-03 14:56:53.959Z295.843° NW2025-07-03 14:59:53.959Z109.578° ESE43.559°2025-07-03 15:02:53.959Z115.139° SE
5 mins2025-07-03 16:37:53.959Z256.687° W2025-07-03 16:39:53.959Z221.521° SW19.651°2025-07-03 16:42:53.959Z174.47° S
|